EC5ZZ-13 Weather Reports


Display with metric or nautical units.
time (UTC)temp
F
wind
direction
speed
MPH
gust
MPH
rain 1hr
in
rain 24hr
in
rain mn
in
humidity
%
barometer
mb
20260508025054 52 306 2.0 3.0 0.00 0.25 0.00 93 1011.4
20260508024032 52 301 2.0 4.0 0.00 0.25 0.00 93 1011.5
20260508023110 52 315 3.0 4.0 0.00 0.25 0.00 93 1011.4
20260508022050 52 345 2.0 3.0 0.00 0.25 0.00 93 1011.5
20260508021027 52 327 2.0 4.0 0.00 0.25 0.00 94 1011.6
20260508020109 52 322 2.0 4.0 0.00 0.25 0.00 94 1011.7
20260508015110 52 315 2.0 4.0 0.00 0.25 0.00 94 1011.7
20260508014117 53 316 2.0 3.0 0.00 0.25 0.00 95 1011.8
20260508013022 53 320 2.0 4.0 0.00 0.25 0.00 95 1011.8
20260508012102 53 309 2.0 3.0 0.00 0.25 0.00 96 1011.9
20260508011042 53 318 2.0 4.0 0.00 0.25 0.00 97 1012.1
20260508010024 53 279 2.0 3.0 0.00 0.25 0.00 97 1012.2
20260508005123 53 316 2.0 4.0 0.00 0.25 0.00 98 1012.3
20260508004047 53 308 2.0 4.0 0.00 0.25 0.00 98 1012.3
20260508003029 53 302 3.0 4.0 0.00 0.25 0.00 99 1012.4
20260508002106 53 307 3.0 5.0 0.00 0.25 0.00 99 1012.5
20260508001043 53 274 3.0 5.0 0.00 0.25 0.00 99 1012.4
20260508000122 53 305 2.0 4.0 0.00 0.25 0.00 99 1012.5
20260507235056 53 315 2.0 4.0 0.00 0.25 0.00 99 1012.7
20260507234035 53 300 2.0 4.0 0.00 0.25 0.00 99 1012.7
20260507233119 53 318 2.0 4.0 0.00 0.25 0.00 99 1012.7
20260507232057 54 0.0 0.0 0.00 0.25 0.00 99 1012.9
20260507231039 54 350 1.0 3.0 0.00 0.25 0.00 99 1012.8
20260507230022 54 318 1.0 2.0 0.00 0.25 0.00 99 1012.9
20260507225103 54 341 2.0 4.0 0.00 0.25 0.00 99 1012.8
20260507224049 54 322 2.0 4.0 0.00 0.25 0.00 99 1013.0
20260507223039 55 324 3.0 5.0 0.00 0.25 0.00 97 1013.1
20260507222027 55 337 2.0 4.0 0.00 0.25 0.00 97 1013.3
20260507221111 55 339 2.0 3.0 0.00 0.25 0.00 97 1013.2
20260507220100 55 330 2.0 4.0 0.00 0.25 0.00 97 1013.1
20260507215038 55 315 3.0 5.0 0.00 0.25 0.25 97 1013.0
20260507214019 56 319 2.0 4.0 0.00 0.25 0.25 96 1013.0
20260507213104 56 325 2.0 5.0 0.00 0.25 0.25 96 1012.9
20260507212124 56 334 2.0 3.0 0.00 0.25 0.25 96 1012.8
20260507211120 56 331 1.0 4.0 0.00 0.25 0.25 95 1012.6
20260507210047 56 342 1.0 4.0 0.00 0.25 0.25 95 1012.5
20260507205028 57 315 0.0 2.0 0.00 0.25 0.25 95 1012.3
20260507204045 57 0.0 1.0 0.00 0.25 0.25 95 1012.3
20260507203030 57 0.0 1.0 0.00 0.25 0.25 94 1012.2
20260507202113 57 0.0 1.0 0.00 0.25 0.25 94 1012.1
20260507201103 57 315 0.0 2.0 0.00 0.25 0.25 93 1012.0
20260507200029 57 0.0 0.0 0.00 0.25 0.25 93 1011.9
20260507195114 57 0.0 1.0 0.00 0.25 0.25 93 1011.9
20260507194101 57 0.0 1.0 0.01 0.25 0.25 92 1011.8
20260507193051 57 330 0.0 2.0 0.02 0.25 0.25 92 1011.5
20260507192039 57 0.0 1.0 0.04 0.25 0.25 91 1011.5
20260507191020 57 0.0 1.0 0.05 0.25 0.25 91 1011.7
20260507190104 57 0.0 2.0 0.07 0.25 0.25 91 1011.8
20260507185049 58 204 0.0 2.0 0.08 0.25 0.25 91 1011.8
20260507184023 57 315 0.0 2.0 0.09 0.24 0.24 91 1011.9
20260507183105 57 195 0.0 2.0 0.09 0.22 0.22 90 1011.9
20260507182049 57 0.0 2.0 0.15 0.21 0.21 90 1011.7
20260507181024 58 342 0.0 2.0 0.20 0.20 0.20 90 1011.7
20260507180110 58 302 0.0 2.0 0.18 0.18 0.18 90 1011.7
20260507175049 58 0 0.0 2.0 0.17 0.17 0.17 89 1011.7
20260507174032 58 330 3.0 4.0 0.14 0.14 0.14 87 1011.6
20260507173120 58 11 2.0 5.0 0.13 0.13 0.13 83 1011.6
20260507172056 60 346 4.0 7.0 0.06 0.06 0.06 77 1011.6
20260507171119 61 274 5.0 8.0 0.00 0.00 0.00 71 1011.3
20260507170116 63 352 10.0 14.0 0.00 0.00 0.00 65 1011.0
20260507165054 65 15 8.0 15.0 0.00 0.00 0.00 57 1011.0
20260507164039 68 356 1.0 2.0 0.00 0.00 0.00 65 1010.9
20260507163116 68 15 2.0 4.0 0.00 0.00 0.00 65 1010.6
20260507162059 68 45 1.0 4.0 0.00 0.00 0.00 66 1010.5
20260507161040 68 355 1.0 4.0 0.00 0.00 0.00 64 1010.3
20260507160025 68 331 1.0 4.0 0.00 0.00 0.00 65 1010.3
20260507155102 69 329 2.0 5.0 0.00 0.00 0.00 65 1010.3
20260507154040 69 19 2.0 4.0 0.00 0.00 0.00 64 1010.4
20260507153026 69 3 3.0 6.0 0.00 0.00 0.00 64 1010.3
20260507152114 69 79 2.0 5.0 0.00 0.00 0.00 63 1010.2
20260507151052 70 336 2.0 5.0 0.00 0.00 0.00 63 1010.2
20260507150032 70 16 2.0 5.0 0.00 0.00 0.00 62 1010.1
20260507145117 70 315 3.0 5.0 0.00 0.00 0.00 64 1010.3
20260507144106 70 68 3.0 12.0 0.00 0.00 0.00 63 1010.3
20260507143050 71 338 4.0 8.0 0.00 0.00 0.00 60 1010.5
20260507142100 71 50 3.0 7.0 0.00 0.00 0.00 59 1010.5
20260507141108 72 35 3.0 6.0 0.00 0.00 0.00 54 1010.6
20260507140048 74 58 2.0 4.0 0.00 0.00 0.00 48 1010.5
20260507135030 76 341 2.0 6.0 0.00 0.00 0.00 43 1010.7
20260507134130 75 348 2.0 8.0 0.00 0.00 0.00 47 1010.8
20260507133057 75 41 4.0 7.0 0.00 0.00 0.00 47 1010.8
20260507132040 77 297 2.0 5.0 0.00 0.00 0.00 50 1010.9
20260507131027 75 78 3.0 5.0 0.00 0.00 0.00 50 1010.9
20260507130111 76 3 2.0 5.0 0.00 0.00 0.00 50 1011.0
20260507125054 73 345 2.0 6.0 0.00 0.00 0.00 54 1011.1
20260507124100 73 59 3.0 5.0 0.00 0.00 0.00 52 1011.1
20260507123027 73 42 4.0 6.0 0.00 0.00 0.00 51 1011.2
20260507122113 72 13 3.0 5.0 0.00 0.00 0.00 53 1011.3
20260507121054 71 45 3.0 7.0 0.00 0.00 0.00 50 1011.5
20260507120035 69 349 3.0 7.0 0.00 0.00 0.00 51 1011.7
20260507115021 68 7 3.0 6.0 0.00 0.00 0.00 52 1011.8
20260507114123 68 12 5.0 9.0 0.00 0.00 0.00 52 1012.1
20260507113041 70 6 5.0 9.0 0.00 0.00 0.00 55 1011.9
20260507112030 71 30 4.0 9.0 0.00 0.00 0.00 58 1011.8
20260507111105 71 69 5.0 10.0 0.00 0.00 0.00 59 1012.0
20260507110050 71 16 3.0 7.0 0.00 0.00 0.00 55 1012.1
20260507105032 72 50 3.0 8.0 0.00 0.00 0.00 52 1012.0
20260507104116 76 341 4.0 11.0 0.00 0.00 0.00 42 1012.0
20260507103100 78 26 3.0 9.0 0.00 0.00 0.00 40 1011.8
20260507102044 77 22 4.0 8.0 0.00 0.00 0.00 40 1011.9
20260507101053 77 90 4.0 6.0 0.00 0.00 0.00 42 1011.9
20260507100018 74 3 2.0 5.0 0.00 0.00 0.00 45 1011.9
20260507095107 75 4 3.0 7.0 0.00 0.00 0.00 42 1012.1
20260507094053 73 359 3.0 7.0 0.00 0.00 0.00 48 1012.1
20260507093039 72 12 2.0 4.0 0.00 0.00 0.00 51 1012.1
20260507092027 72 67 3.0 8.0 0.00 0.00 0.00 48 1012.2
20260507091113 73 8 3.0 7.0 0.00 0.00 0.00 48 1012.2
20260507085122 72 34 2.0 4.0 0.00 0.00 0.00 55 1012.2
20260507084025 69 37 2.0 4.0 0.00 0.00 0.00 56 1012.2
20260507083108 69 52 3.0 4.0 0.00 0.00 0.00 60 1012.2
20260507082057 67 13 2.0 4.0 0.00 0.00 0.00 62 1012.2
20260507081039 67 26 3.0 6.0 0.00 0.00 0.00 62 1012.2
20260507080020 67 17 3.0 7.0 0.00 0.00 0.00 60 1012.2
20260507075124 70 3 3.0 7.0 0.00 0.00 0.00 58 1012.3
20260507074047 71 48 3.0 5.0 0.00 0.00 0.00 59 1012.0
20260507073024 69 42 2.0 7.0 0.00 0.00 0.00 61 1012.0
20260507072111 67 101 2.0 4.0 0.00 0.00 0.00 61 1011.9
20260507071058 67 42 1.0 4.0 0.00 0.00 0.00 56 1011.8
20260507070042 68 0.0 2.0 0.00 0.00 0.00 58 1011.7
20260507065050 65 0.0 1.0 0.00 0.00 0.00 65 1011.6
20260507064112 60 354 1.0 2.0 0.00 0.00 0.00 72 1011.6
20260507063100 57 314 1.0 2.0 0.00 0.00 0.00 72 1011.6
20260507062049 56 350 1.0 2.0 0.00 0.00 0.00 72 1011.5
20260507061036 56 324 1.0 2.0 0.00 0.00 0.00 71 1011.5
20260507060023 56 345 1.0 2.0 0.00 0.00 0.00 72 1011.5
20260507055106 56 315 0.0 2.0 0.00 0.00 0.00 73 1011.5
20260507054052 55 0.0 1.0 0.00 0.00 0.00 74 1011.4
20260507053038 54 315 0.0 2.0 0.00 0.00 0.00 77 1011.4
20260507052139 53 315 1.0 2.0 0.00 0.00 0.00 77 1011.3
20260507051058 53 315 1.0 2.0 0.00 0.00 0.00 77 1011.1
20260507050046 53 306 3.0 4.0 0.00 0.00 0.00 79 1011.0
20260507045047 52 299 2.0 3.0 0.00 0.00 0.00 79 1010.9
20260507044112 52 315 3.0 4.0 0.00 0.00 0.00 80 1010.9
20260507043057 52 311 2.0 3.0 0.00 0.00 0.00 80 1010.8
20260507042045 52 310 2.0 3.0 0.00 0.00 0.00 81 1010.7
20260507041025 52 311 2.0 2.0 0.00 0.00 0.00 81 1010.8
20260507040150 52 342 2.0 2.0 0.00 0.00 0.00 81 1010.8
20260507035050 52 337 2.0 3.0 0.00 0.00 0.00 82 1010.8
20260507034037 52 324 3.0 4.0 0.00 0.00 0.00 81 1010.9
20260507033023 52 310 3.0 4.0 0.00 0.00 0.00 80 1011.1
20260507032107 53 341 2.0 4.0 0.00 0.00 0.00 80 1011.1
20260507031054 53 301 2.0 4.0 0.00 0.00 0.00 80 1011.2
20260507030041 53 321 3.0 4.0 0.00 0.00 0.00 80 1011.2